Total_Precipitation_Accumulation
0.00 0.00 0.00 0.00 0.00 0.00 0.00 0.00 0.00 0.00 0.00 0.00 0.00 0.01 0.03 0.05 0.07 0.09 0.08 0.10 0.14 0.15 0.18 0.22 0.23 0.26 0.29 0.26 0.30 0.33 0.34 0.40 0.39 0.10 0.04 0.05 0.15 0.22 0.20 0.15 0.15 0.16 0.15
0.00 0.00 0.00 0.00 0.00 0.00 0.00 0.00 0.00 0.00 0.00 0.00 0.01 0.03 0.06 0.10 0.11 0.13 0.13 0.13 0.16 0.18 0.20 0.24 0.26 0.25 0.26 0.24 0.27 0.28 0.26 0.25 0.31 0.20 0.06 0.05 0.11 0.19 0.27 0.27 0.22 0.19 0.18
0.00 0.00 0.00 0.00 0.00 0.00 0.00 0.00 0.00 0.00 0.00 0.00 0.01 0.05 0.13 0.20 0.19 0.15 0.19 0.20 0.19 0.21 0.23 0.26 0.26 0.26 0.25 0.22 0.27 0.28 0.23 0.20 0.25 0.28 0.14 0.07 0.11 0.14 0.25 0.35 0.30 0.26 0.24
0.00 0.00 0.00 0.00 0.00 0.00 0.00 0.00 0.00 0.00 0.01 0.01 0.01 0.03 0.14 0.33 0.36 0.27 0.32 0.30 0.24 0.20 0.17 0.17 0.24 0.34 0.33 0.32 0.35 0.30 0.26 0.29 0.33 0.37 0.26 0.16 0.16 0.17 0.27 0.38 0.43 0.40 0.33
0.00 0.00 0.00 0.00 0.00 0.00 0.00 0.00 0.00 0.01 0.01 0.01 0.01 0.02 0.08 0.42 0.79 0.74 0.67 0.49 0.29 0.17 0.11 0.11 0.19 0.33 0.38 0.53 0.64 0.54 0.53 0.60 0.57 0.56 0.48 0.38 0.33 0.35 0.38 0.39 0.53 0.54 0.47
0.00 0.00 0.00 0.00 0.00 0.00 0.00 0.00 0.01 0.01 0.01 0.02 0.02 0.02 0.04 0.30 0.83 0.91 0.68 0.37 0.22 0.16 0.12 0.09 0.12 0.24 0.27 0.36 0.51 0.61 0.70 0.82 0.86 0.82 0.76 0.65 0.48 0.42 0.41 0.50 0.57 0.67 0.66
0.00 0.00 0.00 0.00 0.00 0.00 0.00 0.01 0.01 0.01 0.02 0.02 0.02 0.02 0.02 0.16 0.66 0.78 0.48 0.26 0.17 0.13 0.10 0.08 0.09 0.18 0.24 0.32 0.37 0.41 0.46 0.61 0.80 0.89 0.92 0.67 0.51 0.43 0.52 0.63 0.60 0.63 0.63
0.00 0.00 0.00 0.00 0.00 0.00 0.00 0.01 0.01 0.02 0.02 0.02 0.02 0.02 0.01 0.08 0.51 0.65 0.37 0.20 0.13 0.10 0.06 0.07 0.08 0.12 0.25 0.45 0.46 0.41 0.36 0.43 0.63 0.82 1.02 0.87 0.66 0.62 0.78 0.92 0.92 0.83 0.65
0.00 0.00 0.00 0.00 0.00 0.00 0.01 0.01 0.02 0.03 0.02 0.02 0.02 0.01 0.01 0.02 0.30 0.54 0.36 0.19 0.12 0.08 0.04 0.05 0.08 0.12 0.25 0.47 0.50 0.39 0.28 0.28 0.35 0.57 0.81 0.93 0.89 0.91 1.05 1.35 1.44 1.26 0.96
0.00 0.00 0.00 0.00 0.00 0.01 0.01 0.02 0.02 0.02 0.02 0.02 0.02 0.01 0.01 0.01 0.14 0.38 0.40 0.23 0.12 0.08 0.07 0.05 0.10 0.22 0.32 0.45 0.44 0.40 0.46 0.36 0.30 0.30 0.36 0.49 0.63 0.73 0.93 1.24 1.42 1.33 1.07
0.00 0.00 0.00 0.00 0.00 0.01 0.02 0.02 0.02 0.03 0.03 0.02 0.02 0.01 0.01 0.01 0.05 0.20 0.38 0.31 0.20 0.15 0.14 0.11 0.09 0.22 0.32 0.38 0.42 0.43 0.59 0.53 0.38 0.36 0.35 0.36 0.40 0.52 0.69 0.99 1.31 1.38 1.22
0.00 0.00 0.00 0.00 0.01 0.02 0.03 0.03 0.03 0.03 0.03 0.03 0.02 0.02 0.01 0.01 0.05 0.16 0.28 0.30 0.30 0.21 0.16 0.10 0.10 0.20 0.27 0.33 0.36 0.43 0.46 0.44 0.42 0.38 0.32 0.31 0.36 0.43 0.53 0.71 1.02 1.21 1.18
0.00 0.00 0.00 0.01 0.01 0.03 0.03 0.04 0.04 0.04 0.06 0.05 0.04 0.03 0.02 0.02 0.08 0.17 0.17 0.18 0.25 0.22 0.15 0.16 0.19 0.23 0.23 0.19 0.20 0.29 0.33 0.36 0.46 0.44 0.33 0.29 0.34 0.44 0.49 0.55 0.70 0.99 1.14
0.00 0.00 0.01 0.01 0.02 0.03 0.04 0.04 0.05 0.08 0.15 0.11 0.08 0.07 0.05 0.06 0.20 0.30 0.19 0.13 0.17 0.24 0.24 0.20 0.20 0.19 0.15 0.11 0.10 0.13 0.17 0.27 0.40 0.44 0.35 0.27 0.27 0.34 0.45 0.57 0.67 0.84 1.06
0.00 0.01 0.01 0.02 0.03 0.04 0.04 0.04 0.06 0.07 0.17 0.19 0.16 0.16 0.19 0.24 0.34 0.38 0.32 0.24 0.23 0.26 0.34 0.36 0.25 0.19 0.18 0.16 0.12 0.09 0.10 0.16 0.24 0.27 0.30 0.31 0.29 0.31 0.38 0.50 0.69 0.84 0.99
0.00 0.01 0.02 0.03 0.04 0.04 0.05 0.04 0.05 0.05 0.08 0.09 0.11 0.15 0.15 0.24 0.31 0.28 0.28 0.26 0.27 0.29 0.38 0.40 0.26 0.17 0.17 0.16 0.15 0.13 0.11 0.12 0.14 0.18 0.24 0.29 0.32 0.35 0.38 0.43 0.57 0.78 0.94
0.00 0.01 0.02 0.03 0.04 0.04 0.05 0.05 0.06 0.04 0.04 0.04 0.06 0.09 0.13 0.17 0.20 0.22 0.24 0.23 0.23 0.26 0.31 0.25 0.18 0.16 0.15 0.15 0.16 0.15 0.13 0.10 0.13 0.16 0.19 0.22 0.28 0.32 0.35 0.38 0.46 0.61 0.80
0.01 0.02 0.03 0.04 0.05 0.05 0.05 0.06 0.08 0.09 0.08 0.04 0.03 0.05 0.09 0.13 0.16 0.18 0.21 0.25 0.23 0.19 0.21 0.21 0.18 0.16 0.16 0.17 0.17 0.16 0.14 0.13 0.14 0.14 0.14 0.16 0.21 0.27 0.30 0.33 0.39 0.52 0.68
0.01 0.02 0.03 0.04 0.05 0.05 0.06 0.07 0.08 0.09 0.09 0.07 0.05 0.05 0.08 0.11 0.13 0.15 0.20 0.28 0.25 0.18 0.16 0.16 0.15 0.17 0.17 0.17 0.17 0.16 0.16 0.14 0.12 0.13 0.13 0.13 0.15 0.20 0.24 0.26 0.33 0.42 0.56
0.01 0.02 0.04 0.05 0.05 0.06 0.07 0.10 0.11 0.12 0.12 0.11 0.10 0.10 0.18 0.26 0.26 0.20 0.20 0.23 0.22 0.18 0.15 0.16 0.15 0.16 0.17 0.18 0.17 0.16 0.15 0.13 0.11 0.11 0.10 0.10 0.11 0.13 0.17 0.21 0.26 0.34 0.43
0.01 0.02 0.04 0.05 0.06 0.08 0.11 0.13 0.15 0.18 0.18 0.15 0.11 0.12 0.28 0.42 0.34 0.23 0.20 0.20 0.21 0.21 0.20 0.20 0.18 0.16 0.16 0.17 0.17 0.16 0.15 0.12 0.10 0.10 0.09 0.09 0.09 0.10 0.11 0.16 0.21 0.27 0.36
0.01 0.02 0.05 0.07 0.09 0.10 0.13 0.15 0.18 0.19 0.19 0.18 0.16 0.13 0.18 0.27 0.27 0.25 0.21 0.18 0.18 0.20 0.22 0.25 0.22 0.17 0.19 0.22 0.22 0.20 0.16 0.12 0.10 0.10 0.09 0.08 0.08 0.08 0.09 0.12 0.15 0.20 0.28
0.03 0.05 0.08 0.10 0.11 0.14 0.16 0.16 0.17 0.20 0.21 0.21 0.21 0.19 0.20 0.22 0.23 0.24 0.23 0.20 0.19 0.19 0.19 0.22 0.22 0.17 0.16 0.18 0.20 0.24 0.22 0.16 0.12 0.12 0.11 0.09 0.08 0.07 0.08 0.10 0.12 0.17 0.24
0.06 0.10 0.13 0.14 0.15 0.17 0.19 0.20 0.20 0.22 0.23 0.23 0.22 0.21 0.21 0.22 0.21 0.21 0.20 0.21 0.21 0.20 0.19 0.22 0.21 0.19 0.18 0.19 0.17 0.19 0.18 0.16 0.15 0.14 0.13 0.13 0.11 0.09 0.10 0.12 0.13 0.16 0.22
0.09 0.13 0.16 0.18 0.21 0.23 0.25 0.25 0.24 0.23 0.24 0.24 0.24 0.23 0.22 0.21 0.20 0.18 0.17 0.18 0.19 0.18 0.17 0.20 0.21 0.22 0.21 0.20 0.20 0.20 0.18 0.16 0.16 0.18 0.18 0.17 0.14 0.12 0.13 0.14 0.14 0.15 0.19
0.10 0.13 0.17 0.20 0.25 0.28 0.33 0.34 0.29 0.26 0.28 0.27 0.25 0.25 0.24 0.23 0.20 0.18 0.17 0.18 0.19 0.18 0.16 0.17 0.19 0.22 0.22 0.22 0.21 0.20 0.19 0.17 0.16 0.17 0.18 0.18 0.15 0.12 0.13 0.16 0.15 0.16 0.18